Time,TemperatureF,DewpointF,PressureIn,WindDirection,WindDirectionDegrees,WindSpeedMPH,WindSpeedGustMPH,Humidity,HourlyPrecipIn,Conditions,Clouds,dailyrainin,SoftwareType,DateUTC
2013-03-01 00:01:00,44.0,28.0,30.39,SW,218,15.0,19.0,52,0.00,,,0.00,,2013-03-01 08:01:00,
2013-03-01 00:11:00,44.0,28.0,30.39,SW,218,15.0,19.0,52,0.00,,,0.00,,2013-03-01 08:11:00,
2013-03-01 00:21:00,44.0,27.0,30.40,SW,224,15.0,23.0,51,0.00,,,0.00,,2013-03-01 08:21:00,
2013-03-01 00:31:00,44.0,28.0,30.40,SW,217,17.0,21.0,52,0.00,,,0.00,,2013-03-01 08:31:00,
2013-03-01 00:42:00,44.0,28.0,30.40,SW,217,17.0,21.0,52,0.00,,,0.00,,2013-03-01 08:42:00,
2013-03-01 00:53:00,44.0,27.0,30.40,SW,230,16.0,21.0,51,0.00,,,0.00,,2013-03-01 08:53:00,
2013-03-01 01:01:00,44.0,28.0,30.40,SW,232,14.0,22.0,52,0.00,,,0.00,,2013-03-01 09:01:00,
2013-03-01 01:11:00,44.0,28.0,30.40,SW,232,14.0,22.0,52,0.00,,,0.00,,2013-03-01 09:11:00,
2013-03-01 01:21:00,42.0,27.0,30.40,SW,226,17.0,20.0,54,0.00,,,0.00,,2013-03-01 09:21:00,
2013-03-01 01:31:00,42.0,27.0,30.40,SW,234,16.0,22.0,54,0.00,,,0.00,,2013-03-01 09:31:00,
2013-03-01 01:41:00,42.0,27.0,30.40,SW,234,16.0,22.0,54,0.00,,,0.00,,2013-03-01 09:41:00,
2013-03-01 01:51:00,42.0,27.0,30.40,WSW,238,16.0,21.0,54,0.00,,,0.00,,2013-03-01 09:51:00,
2013-03-01 02:01:00,42.0,27.0,30.39,SW,225,16.0,20.0,54,0.00,,,0.00,,2013-03-01 10:01:00,
2013-03-01 02:11:00,42.0,27.0,30.39,SW,225,16.0,20.0,54,0.00,,,0.00,,2013-03-01 10:11:00,
2013-03-01 02:21:00,42.0,27.0,30.38,SW,224,17.0,21.0,54,0.00,,,0.00,,2013-03-01 10:21:00,
2013-03-01 02:31:00,42.0,26.0,30.38,WSW,238,17.0,22.0,53,0.00,,,0.00,,2013-03-01 10:31:00,
2013-03-01 02:41:00,42.0,26.0,30.38,WSW,238,17.0,22.0,53,0.00,,,0.00,,2013-03-01 10:41:00,
2013-03-01 02:52:00,42.0,26.0,30.37,SW,233,16.0,19.0,52,0.00,,,0.00,,2013-03-01 10:52:00,
2013-03-01 03:01:00,42.0,26.0,30.37,SW,234,17.0,22.0,52,0.00,,,0.00,,2013-03-01 11:01:00,
2013-03-01 03:11:00,42.0,26.0,30.37,SW,234,17.0,22.0,52,0.00,,,0.00,,2013-03-01 11:11:00,
2013-03-01 03:22:00,42.0,27.0,30.37,SW,218,18.0,22.0,54,0.00,,,0.00,,2013-03-01 11:22:00,
2013-03-01 03:31:00,41.0,26.0,30.37,SW,220,18.0,23.0,54,0.00,,,0.00,,2013-03-01 11:31:00,
2013-03-01 03:41:00,41.0,26.0,30.37,SW,220,18.0,23.0,54,0.00,,,0.00,,2013-03-01 11:41:00,
2013-03-01 03:52:00,41.0,25.0,30.37,SW,225,17.0,22.0,53,0.00,,,0.00,,2013-03-01 11:52:00,
2013-03-01 04:01:00,40.0,24.0,30.37,SW,228,16.0,21.0,53,0.00,,,0.00,,2013-03-01 12:01:00,
2013-03-01 04:11:00,40.0,24.0,30.37,SW,228,16.0,21.0,53,0.00,,,0.00,,2013-03-01 12:11:00,
2013-03-01 04:21:00,40.0,24.0,30.37,SW,232,16.0,21.0,53,0.00,,,0.00,,2013-03-01 12:21:00,
2013-03-01 04:32:00,41.0,24.0,30.37,SW,235,15.0,19.0,51,0.00,,,0.00,,2013-03-01 12:32:00,
2013-03-01 04:41:00,41.0,24.0,30.37,SW,235,15.0,19.0,51,0.00,,,0.00,,2013-03-01 12:41:00,
2013-03-01 04:52:00,41.0,24.0,30.37,SW,233,15.0,21.0,51,0.00,,,0.00,,2013-03-01 12:52:00,
2013-03-01 05:01:00,40.0,23.0,30.37,WSW,238,14.0,18.0,51,0.00,,,0.00,,2013-03-01 13:01:00,
2013-03-01 05:11:00,40.0,24.0,30.38,WSW,241,15.0,18.0,52,0.00,,,0.00,,2013-03-01 13:11:00,
2013-03-01 05:21:00,40.0,24.0,30.38,WSW,241,15.0,18.0,52,0.00,,,0.00,,2013-03-01 13:21:00,
2013-03-01 05:32:00,40.0,23.0,30.38,WSW,249,11.0,18.0,51,0.00,,,0.00,,2013-03-01 13:32:00,
2013-03-01 05:41:00,40.0,23.0,30.38,WSW,249,11.0,18.0,51,0.00,,,0.00,,2013-03-01 13:41:00,
2013-03-01 05:52:00,39.0,23.0,30.38,WSW,246,12.0,19.0,52,0.00,,,0.00,,2013-03-01 13:52:00,
2013-03-01 06:01:00,39.0,23.0,30.39,WSW,257,10.0,17.0,52,0.00,,,0.00,,2013-03-01 14:01:00,
2013-03-01 06:11:00,39.0,23.0,30.39,WSW,257,10.0,17.0,52,0.00,,,0.00,,2013-03-01 14:11:00,
2013-03-01 06:21:00,37.0,22.0,30.38,WSW,251,11.0,16.0,54,0.00,,,0.00,,2013-03-01 14:21:00,
2013-03-01 06:31:00,36.0,22.0,30.38,WSW,256,13.0,14.0,57,0.00,,,0.00,,2013-03-01 14:31:00,
2013-03-01 06:41:00,36.0,22.0,30.38,WSW,256,13.0,14.0,57,0.00,,,0.00,,2013-03-01 14:41:00,
2013-03-01 06:52:00,36.0,22.0,30.38,WSW,252,13.0,17.0,57,0.00,,,0.00,,2013-03-01 14:52:00,
2013-03-01 07:01:00,36.0,21.0,30.37,WSW,254,11.0,16.0,55,0.00,,,0.00,,2013-03-01 15:01:00,
2013-03-01 07:11:00,37.0,22.0,30.38,WSW,255,11.0,14.0,54,0.00,,,0.00,,2013-03-01 15:11:00,
2013-03-01 07:21:00,37.0,22.0,30.38,WSW,255,11.0,14.0,54,0.00,,,0.00,,2013-03-01 15:21:00,
2013-03-01 07:31:00,38.0,22.0,30.38,WSW,246,9.0,13.0,51,0.00,,,0.00,,2013-03-01 15:31:00,
2013-03-01 07:42:00,38.0,22.0,30.38,WSW,246,9.0,13.0,51,0.00,,,0.00,,2013-03-01 15:42:00,
2013-03-01 07:52:00,40.0,23.0,30.39,WSW,250,7.0,10.0,50,0.00,,,0.00,,2013-03-01 15:52:00,
2013-03-01 08:01:00,42.0,22.0,30.39,WSW,252,3.0,7.0,45,0.00,,,0.00,,2013-03-01 16:01:00,
2013-03-01 08:11:00,42.0,22.0,30.39,WSW,252,3.0,7.0,45,0.00,,,0.00,,2013-03-01 16:11:00,
2013-03-01 08:21:00,46.0,21.0,30.39,NE,50,1.0,6.0,37,0.00,,,0.00,,2013-03-01 16:21:00,
2013-03-01 08:31:00,54.0,19.0,30.40,ENE,72,7.0,9.0,25,0.00,,,0.00,,2013-03-01 16:31:00,
2013-03-01 08:52:00,56.0,18.0,30.40,ENE,71,8.0,11.0,22,0.00,,,0.00,,2013-03-01 16:52:00,
2013-03-01 09:01:00,58.0,16.0,30.40,East,85,12.0,16.0,19,0.00,,,0.00,,2013-03-01 17:01:00,
2013-03-01 09:11:00,59.0,16.0,30.40,East,87,13.0,18.0,18,0.00,,,0.00,,2013-03-01 17:11:00,
2013-03-01 09:21:00,59.0,16.0,30.40,East,87,13.0,18.0,18,0.00,,,0.00,,2013-03-01 17:21:00,
2013-03-01 09:31:00,59.0,16.0,30.40,East,88,11.0,18.0,18,0.00,,,0.00,,2013-03-01 17:31:00,
2013-03-01 09:41:00,59.0,14.0,30.40,East,93,12.0,19.0,17,0.00,,,0.00,,2013-03-01 17:41:00,
2013-03-01 09:52:00,59.0,14.0,30.40,East,93,12.0,19.0,17,0.00,,,0.00,,2013-03-01 17:52:00,
2013-03-01 10:01:00,60.0,12.0,30.40,East,91,13.0,17.0,15,0.00,,,0.00,,2013-03-01 18:01:00,
2013-03-01 10:11:00,60.0,12.0,30.40,East,91,13.0,17.0,15,0.00,,,0.00,,2013-03-01 18:11:00,
2013-03-01 10:21:00,62.0,12.0,30.39,East,91,14.0,19.0,14,0.00,,,0.00,,2013-03-01 18:21:00,
2013-03-01 10:31:00,62.0,11.0,30.40,East,90,15.0,22.0,13,0.00,,,0.00,,2013-03-01 18:31:00,
2013-03-01 10:41:00,62.0,12.0,30.40,East,96,15.0,22.0,14,0.00,,,0.00,,2013-03-01 18:41:00,
2013-03-01 10:52:00,62.0,12.0,30.40,East,96,15.0,22.0,14,0.00,,,0.00,,2013-03-01 18:52:00,
2013-03-01 11:01:00,63.0,11.0,30.40,East,92,14.0,20.0,13,0.00,,,0.00,,2013-03-01 19:01:00,
2013-03-01 11:11:00,63.0,11.0,30.40,East,92,14.0,20.0,13,0.00,,,0.00,,2013-03-01 19:11:00,
2013-03-01 11:21:00,63.0,11.0,30.39,East,96,14.0,19.0,13,0.00,,,0.00,,2013-03-01 19:21:00,
2013-03-01 11:31:00,64.0,12.0,30.38,East,94,14.0,21.0,13,0.00,,,0.00,,2013-03-01 19:31:00,
2013-03-01 11:41:00,64.0,12.0,30.38,East,94,14.0,21.0,13,0.00,,,0.00,,2013-03-01 19:41:00,
2013-03-01 11:52:00,65.0,15.0,30.38,East,84,14.0,23.0,14,0.00,,,0.00,,2013-03-01 19:52:00,
2013-03-01 12:01:00,65.0,16.0,30.37,ENE,69,15.0,21.0,15,0.00,,,0.00,,2013-03-01 20:01:00,
2013-03-01 12:11:00,65.0,16.0,30.37,ENE,69,15.0,21.0,15,0.00,,,0.00,,2013-03-01 20:11:00,
2013-03-01 12:21:00,66.0,15.0,30.37,East,85,14.0,19.0,14,0.00,,,0.00,,2013-03-01 20:21:00,
2013-03-01 12:31:00,66.0,17.0,30.36,ENE,75,14.0,23.0,15,0.00,,,0.00,,2013-03-01 20:31:00,
2013-03-01 12:41:00,66.0,17.0,30.36,ENE,75,14.0,23.0,15,0.00,,,0.00,,2013-03-01 20:41:00,
2013-03-01 12:52:00,67.0,18.0,30.35,East,89,14.0,19.0,15,0.00,,,0.00,,2013-03-01 20:52:00,
2013-03-01 13:01:00,68.0,17.0,30.35,East,91,11.0,18.0,14,0.00,,,0.00,,2013-03-01 21:01:00,
2013-03-01 13:11:00,67.0,16.0,30.34,ENE,71,12.0,22.0,14,0.00,,,0.00,,2013-03-01 21:11:00,
2013-03-01 13:21:00,67.0,16.0,30.34,ENE,71,12.0,22.0,14,0.00,,,0.00,,2013-03-01 21:21:00,
2013-03-01 13:31:00,68.0,19.0,30.33,East,83,10.0,18.0,15,0.00,,,0.00,,2013-03-01 21:31:00,
2013-03-01 13:41:00,67.0,16.0,30.32,ENE,71,11.0,19.0,14,0.00,,,0.00,,2013-03-01 21:41:00,
2013-03-01 13:52:00,67.0,16.0,30.32,ENE,71,11.0,19.0,14,0.00,,,0.00,,2013-03-01 21:52:00,
2013-03-01 14:01:00,68.0,17.0,30.32,East,98,9.0,18.0,14,0.00,,,0.00,,2013-03-01 22:01:00,
2013-03-01 14:11:00,68.0,17.0,30.32,East,86,11.0,21.0,14,0.00,,,0.00,,2013-03-01 22:11:00,
2013-03-01 14:21:00,68.0,17.0,30.32,East,86,11.0,21.0,14,0.00,,,0.00,,2013-03-01 22:21:00,
2013-03-01 14:31:00,68.0,17.0,30.31,East,90,13.0,18.0,14,0.00,,,0.00,,2013-03-01 22:31:00,
2013-03-01 14:41:00,68.0,17.0,30.31,East,90,13.0,18.0,14,0.00,,,0.00,,2013-03-01 22:41:00,
2013-03-01 14:51:00,67.0,16.0,30.31,East,94,10.0,19.0,14,0.00,,,0.00,,2013-03-01 22:51:00,
2013-03-01 15:01:00,68.0,17.0,30.30,ENE,66,13.0,20.0,14,0.00,,,0.00,,2013-03-01 23:01:00,
2013-03-01 15:11:00,68.0,17.0,30.30,ENE,66,13.0,20.0,14,0.00,,,0.00,,2013-03-01 23:11:00,
2013-03-01 15:21:00,68.0,17.0,30.30,East,86,14.0,19.0,14,0.00,,,0.00,,2013-03-01 23:21:00,
2013-03-01 15:31:00,68.0,17.0,30.29,East,94,13.0,17.0,14,0.00,,,0.00,,2013-03-01 23:31:00,
2013-03-01 15:41:00,68.0,17.0,30.29,East,94,13.0,17.0,14,0.00,,,0.00,,2013-03-01 23:41:00,
2013-03-01 15:52:00,68.0,19.0,30.29,East,86,10.0,18.0,15,0.00,,,0.00,,2013-03-01 23:52:00,
2013-03-01 16:01:00,68.0,19.0,30.28,NE,53,10.0,19.0,15,0.00,,,0.00,,2013-03-02 00:01:00,
2013-03-01 16:11:00,68.0,19.0,30.28,NE,53,10.0,19.0,15,0.00,,,0.00,,2013-03-02 00:11:00,
2013-03-01 16:21:00,68.0,19.0,30.28,East,90,15.0,22.0,15,0.00,,,0.00,,2013-03-02 00:21:00,
2013-03-01 16:31:00,68.0,17.0,30.28,East,87,15.0,18.0,14,0.00,,,0.00,,2013-03-02 00:31:00,
2013-03-01 16:41:00,68.0,17.0,30.28,East,87,15.0,18.0,14,0.00,,,0.00,,2013-03-02 00:41:00,
2013-03-01 16:52:00,68.0,19.0,30.28,East,88,11.0,18.0,15,0.00,,,0.00,,2013-03-02 00:52:00,
2013-03-01 17:01:00,67.0,18.0,30.27,East,84,11.0,18.0,15,0.00,,,0.00,,2013-03-02 01:01:00,
2013-03-01 17:11:00,67.0,18.0,30.27,East,84,11.0,18.0,15,0.00,,,0.00,,2013-03-02 01:11:00,
2013-03-01 17:21:00,67.0,16.0,30.28,East,96,15.0,19.0,14,0.00,,,0.00,,2013-03-02 01:21:00,
2013-03-01 17:31:00,66.0,17.0,30.27,East,88,12.0,16.0,15,0.00,,,0.00,,2013-03-02 01:31:00,
2013-03-01 17:41:00,66.0,17.0,30.27,East,88,12.0,16.0,15,0.00,,,0.00,,2013-03-02 01:41:00,
2013-03-01 17:52:00,65.0,16.0,30.28,East,92,11.0,15.0,15,0.00,,,0.00,,2013-03-02 01:52:00,
2013-03-01 18:01:00,64.0,15.0,30.29,ENE,77,5.0,13.0,15,0.00,,,0.00,,2013-03-02 02:01:00,
2013-03-01 18:11:00,64.0,15.0,30.29,ENE,77,5.0,13.0,15,0.00,,,0.00,,2013-03-02 02:11:00,
2013-03-01 18:21:00,61.0,16.0,30.29,ENE,74,4.0,9.0,17,0.00,,,0.00,,2013-03-02 02:21:00,
2013-03-01 18:31:00,62.0,17.0,30.30,East,100,3.0,8.0,17,0.00,,,0.00,,2013-03-02 02:31:00,
2013-03-01 18:41:00,62.0,17.0,30.30,East,100,3.0,8.0,17,0.00,,,0.00,,2013-03-02 02:41:00,
2013-03-01 18:52:00,61.0,17.0,30.31,East,91,6.0,9.0,18,0.00,,,0.00,,2013-03-02 02:52:00,
2013-03-01 19:01:00,61.0,18.0,30.31,East,85,5.0,8.0,19,0.00,,,0.00,,2013-03-02 03:01:00,
2013-03-01 19:11:00,61.0,18.0,30.31,East,85,5.0,8.0,19,0.00,,,0.00,,2013-03-02 03:11:00,
2013-03-01 19:21:00,60.0,18.0,30.31,East,81,4.0,8.0,19,0.00,,,0.00,,2013-03-02 03:21:00,
2013-03-01 19:31:00,59.0,18.0,30.31,East,89,2.0,7.0,20,0.00,,,0.00,,2013-03-02 03:31:00,
2013-03-01 19:41:00,59.0,18.0,30.31,East,89,2.0,7.0,20,0.00,,,0.00,,2013-03-02 03:41:00,
2013-03-01 19:52:00,57.0,16.0,30.31,East,83,1.0,3.0,20,0.00,,,0.00,,2013-03-02 03:52:00,
2013-03-01 20:01:00,56.0,17.0,30.32,South,175,1.0,2.0,21,0.00,,,0.00,,2013-03-02 04:01:00,
2013-03-01 20:11:00,53.0,16.0,30.33,WSW,249,4.0,6.0,23,0.00,,,0.00,,2013-03-02 04:11:00,
2013-03-01 20:21:00,53.0,16.0,30.33,WSW,249,4.0,6.0,23,0.00,,,0.00,,2013-03-02 04:21:00,
2013-03-01 20:31:00,52.0,17.0,30.33,WSW,250,7.0,9.0,25,0.00,,,0.00,,2013-03-02 04:31:00,
2013-03-01 20:41:00,52.0,17.0,30.33,WSW,250,7.0,9.0,25,0.00,,,0.00,,2013-03-02 04:41:00,
2013-03-01 20:52:00,51.0,17.0,30.33,WSW,258,8.0,10.0,26,0.00,,,0.00,,2013-03-02 04:52:00,
2013-03-01 21:01:00,50.0,18.0,30.32,WSW,251,8.0,9.0,28,0.00,,,0.00,,2013-03-02 05:01:00,
2013-03-01 21:12:00,50.0,18.0,30.32,WSW,251,8.0,9.0,28,0.00,,,0.00,,2013-03-02 05:12:00,
2013-03-01 21:22:00,49.0,18.0,30.33,WSW,252,9.0,12.0,29,0.00,,,0.00,,2013-03-02 05:22:00,
2013-03-01 21:31:00,48.0,18.0,30.32,WSW,257,10.0,11.0,30,0.00,,,0.00,,2013-03-02 05:31:00,
2013-03-01 21:41:00,48.0,18.0,30.32,WSW,257,10.0,11.0,30,0.00,,,0.00,,2013-03-02 05:41:00,
2013-03-01 21:52:00,48.0,19.0,30.33,WSW,258,9.0,12.0,31,0.00,,,0.00,,2013-03-02 05:52:00,
2013-03-01 22:01:00,48.0,19.0,30.32,WSW,254,10.0,12.0,31,0.00,,,0.00,,2013-03-02 06:01:00,
2013-03-01 22:11:00,48.0,19.0,30.32,WSW,254,10.0,12.0,31,0.00,,,0.00,,2013-03-02 06:11:00,
2013-03-01 22:21:00,47.0,19.0,30.32,WSW,257,9.0,12.0,32,0.00,,,0.00,,2013-03-02 06:21:00,
2013-03-01 22:31:00,46.0,19.0,30.32,WSW,257,9.0,12.0,33,0.00,,,0.00,,2013-03-02 06:31:00,
2013-03-01 22:41:00,46.0,19.0,30.32,WSW,257,9.0,12.0,33,0.00,,,0.00,,2013-03-02 06:41:00,
2013-03-01 22:52:00,47.0,19.0,30.32,WSW,255,11.0,13.0,32,0.00,,,0.00,,2013-03-02 06:52:00,
2013-03-01 23:01:00,47.0,19.0,30.32,WSW,246,12.0,14.0,32,0.00,,,0.00,,2013-03-02 07:01:00,
2013-03-01 23:11:00,47.0,19.0,30.33,WSW,258,9.0,14.0,32,0.00,,,0.00,,2013-03-02 07:11:00,
2013-03-01 23:21:00,47.0,19.0,30.33,WSW,258,9.0,14.0,32,0.00,,,0.00,,2013-03-02 07:21:00,
2013-03-01 23:32:00,47.0,19.0,30.32,WSW,256,11.0,14.0,32,0.00,,,0.00,,2013-03-02 07:32:00,
2013-03-01 23:41:00,47.0,19.0,30.32,WSW,256,11.0,14.0,32,0.00,,,0.00,,2013-03-02 07:41:00,
2013-03-01 23:52:00,47.0,19.0,30.33,WSW,248,10.0,15.0,33,0.00,,,0.00,,2013-03-02 07:52:00,